Wind_Speed
37 36 35 30 27 25 19 15 13 8 9 6 7 5 8 7 7 5 7 9 10 9 6 5 5 6 9 11 12 10 8 7 8 9 11 13 14 13 13 13 13 13 14
38 36 35 30 28 22 17 17 13 10 11 11 8 8 9 9 8 6 8 10 10 10 10 9 9 11 12 13 12 10 10 8 9 12 15 16 16 16 15 15 15 16 17
39 37 34 32 27 23 19 17 12 9 15 12 10 9 11 11 7 8 9 10 10 10 12 12 14 15 16 16 16 14 13 14 15 17 19 19 19 19 19 19 19 19 20
38 37 36 29 27 25 16 13 13 15 18 13 11 10 11 11 9 9 9 10 11 12 12 14 15 16 17 17 16 17 17 18 19 22 24 21 21 21 22 23 24 24 23
39 37 31 32 28 25 21 22 18 19 17 13 14 12 12 12 11 9 11 11 11 11 13 15 16 17 18 19 19 19 20 20 21 25 24 25 25 26 25 25 25 26 25
36 34 34 30 26 21 21 22 21 21 17 17 15 12 13 13 12 11 13 13 13 13 14 15 17 18 19 20 20 21 23 24 26 28 27 27 27 30 29 28 27 27 28
45 39 35 33 28 25 30 25 23 22 20 18 16 14 14 14 14 15 16 16 16 17 17 18 19 18 19 20 21 23 25 27 28 28 27 27 31 34 31 30 30 30 31
47 50 44 36 33 31 31 31 24 23 21 21 18 17 19 17 15 17 18 19 21 23 23 23 22 23 22 22 24 27 30 31 30 29 30 31 34 32 32 32 31 31 32
35 41 37 40 39 33 33 25 26 26 23 23 20 22 23 22 20 20 21 22 25 26 27 28 28 29 29 27 30 31 31 30 30 30 33 39 35 33 32 31 32 32 34
40 36 48 52 45 35 30 25 27 27 26 25 26 26 25 24 25 26 24 24 26 29 33 33 35 35 34 33 34 33 30 29 31 31 35 36 36 36 38 35 35 35 37
45 33 32 41 40 34 28 29 29 30 29 28 27 28 29 28 27 28 29 30 28 27 32 34 42 41 42 38 36 32 33 34 36 37 36 36 35 34 35 37 37 38 40
24 28 32 36 30 33 31 29 30 31 32 32 31 32 35 37 35 33 36 28 33 36 36 35 38 41 43 37 35 33 36 36 38 39 38 35 34 33 34 34 36 39 41
29 31 33 32 32 35 32 34 36 32 38 38 39 40 43 38 35 35 35 41 42 39 37 34 35 34 37 39 36 39 37 38 39 40 38 36 36 36 36 37 37 38 40
20 23 21 25 32 38 38 38 37 37 40 42 43 44 45 35 35 37 38 35 38 43 39 31 34 34 30 35 39 38 39 40 42 41 40 39 39 39 39 39 40 40 41
20 19 21 24 30 35 36 37 39 40 45 45 44 48 48 38 40 41 42 41 40 44 42 35 35 32 32 35 35 37 38 38 41 43 42 42 42 41 40 41 42 42 43
19 21 23 25 27 30 33 38 41 45 49 48 49 49 49 45 44 43 40 44 44 40 44 37 33 36 37 37 37 39 38 40 43 45 44 44 43 42 42 43 43 43 45
21 24 26 28 31 35 38 43 47 51 53 55 54 57 57 49 51 45 48 43 40 45 42 38 37 38 45 42 41 40 42 44 45 45 45 45 44 43 43 45 45 45 46
25 26 29 33 35 39 42 48 52 51 53 54 49 49 44 52 43 46 48 43 43 44 46 45 37 43 42 42 47 44 43 44 46 47 46 45 45 43 46 46 45 46 48
29 30 31 33 35 36 42 43 40 43 45 48 44 58 63 49 34 43 39 44 46 47 48 44 46 44 43 49 48 45 44 44 47 48 45 45 45 45 46 45 46 46 47
31 32 34 37 40 38 43 36 36 35 33 30 33 32 35 41 40 55 44 50 50 49 46 46 45 52 51 50 47 46 49 49 47 47 45 47 45 45 44 45 48 46 46
28 32 33 34 35 36 34 34 35 33 36 36 36 38 42 44 47 45 51 53 51 54 50 54 51 54 48 48 49 51 53 51 50 50 49 48 47 47 44 48 49 45 44
30 31 32 31 32 33 32 32 34 37 40 41 42 44 42 48 46 45 52 58 55 54 55 52 54 50 53 56 49 51 55 54 55 56 51 51 51 50 49 46 43 42 44
28 29 30 32 32 34 34 35 37 41 43 45 45 46 45 51 49 47 58 47 62 49 45 53 51 51 50 50 53 53 55 53 53 55 55 60 56 52 45 42 40 41 43
30 31 31 32 32 33 32 37 39 40 42 45 44 45 46 47 42 40 47 54 49 47 50 52 51 50 52 55 57 56 55 56 58 58 56 57 51 46 42 40 39 41 41
31 31 31 30 33 35 34 35 37 37 39 38 44 45 45 42 32 36 44 51 53 57 59 58 55 53 56 59 59 61 56 56 57 57 52 51 45 42 40 40 40 38 39
31 32 33 34 34 33 35 36 36 34 35 37 39 44 40 43 51 51 51 54 56 55 52 51 54 57 58 59 56 53 52 54 53 51 50 45 41 40 41 40 39 37 38
Wind_Direction
200 202 202 193 188 194 190 198 195 190 243 268 271 312 289 254 230 219 227 221 225 237 249 262 280 293 306 328 347 356 6 12 6 359 346 332 322 314 310 309 309 308 307
200 201 202 193 191 195 194 205 198 205 242 249 259 273 275 259 247 252 245 240 237 240 246 263 285 295 297 302 317 322 335 343 347 343 337 326 318 314 308 306 305 304 305
199 201 199 196 193 202 198 199 201 228 241 250 257 273 272 263 259 259 253 247 245 248 257 264 274 281 288 294 300 306 306 311 315 323 324 322 319 316 312 308 304 305 306
199 201 199 202 194 198 197 221 228 231 241 246 256 268 270 265 263 266 266 262 256 260 270 278 282 284 289 292 295 298 298 302 309 317 318 315 313 315 312 309 305 302 300
195 200 204 199 200 207 239 233 222 231 238 250 257 268 268 262 261 265 271 268 266 275 282 284 285 289 292 292 294 297 296 296 301 306 310 310 313 314 310 304 301 299 299
192 197 199 203 216 216 210 223 229 232 239 246 255 270 268 262 261 262 268 272 276 281 283 284 288 289 291 294 297 297 296 296 298 301 304 305 309 311 304 301 299 297 297
187 193 200 215 208 209 224 223 234 233 242 247 253 267 269 264 260 260 264 270 272 273 275 279 283 292 292 290 290 292 294 295 294 297 298 306 307 305 300 298 297 298 298
199 193 198 210 210 214 217 217 235 238 243 246 255 262 263 264 266 271 270 273 273 275 279 282 287 288 289 291 291 294 295 292 293 296 297 298 302 299 299 298 298 298 299
208 207 207 210 211 218 220 219 239 241 245 250 253 259 267 274 271 266 268 271 275 278 279 280 281 282 285 290 292 291 295 293 294 298 301 304 303 300 296 295 297 298 300
217 226 213 216 219 217 222 230 239 240 244 253 255 257 268 276 274 269 267 274 279 282 277 276 277 278 280 281 287 288 292 300 298 293 297 297 299 301 301 301 301 298 299
225 232 225 217 225 222 224 235 239 242 249 255 259 261 265 268 271 282 278 279 270 276 279 288 279 274 273 278 283 285 288 291 293 290 291 291 293 293 293 297 300 302 302
238 233 224 220 214 219 222 232 240 248 253 256 259 265 266 264 268 271 269 271 286 272 279 282 286 280 271 273 278 278 286 289 291 288 288 290 290 290 291 294 296 299 301
222 215 214 219 221 222 222 232 238 248 258 245 261 268 265 266 270 277 282 276 274 281 282 278 280 279 277 272 278 280 283 284 288 289 291 293 292 290 291 293 295 296 298
207 212 218 217 217 221 227 236 241 251 257 257 260 265 273 269 271 276 276 275 278 275 284 279 276 279 272 267 276 277 280 284 288 289 292 290 287 288 290 293 295 295 294
209 211 216 220 222 226 232 240 248 256 260 258 260 264 271 267 266 270 275 274 270 274 282 276 279 280 276 278 280 281 285 286 286 287 288 287 286 287 289 291 292 293 293
213 218 224 230 235 239 245 250 255 257 259 259 260 259 266 265 263 262 269 270 265 276 281 285 276 276 279 281 284 288 287 283 283 284 284 283 284 285 288 289 290 291 291
229 231 235 240 244 247 250 254 257 258 259 261 261 260 258 257 255 260 263 273 269 276 278 283 282 284 281 286 289 282 283 280 280 280 279 280 281 284 287 289 290 291 291
247 248 248 250 251 254 257 258 262 269 271 263 269 267 266 271 254 254 259 270 264 274 278 274 270 276 278 283 277 280 280 278 279 279 277 279 281 283 284 285 287 289 288
252 253 255 258 261 265 269 276 277 282 280 276 264 266 263 267 250 263 263 271 274 268 276 264 264 278 281 275 270 282 276 276 277 277 276 278 278 280 281 283 285 284 287
253 256 257 258 260 264 268 271 264 278 284 281 272 267 265 274 267 270 267 269 274 265 263 269 268 274 271 266 275 278 279 277 277 277 277 279 281 281 282 282 283 284 284
254 255 260 264 265 262 269 272 271 274 278 278 276 273 269 270 272 267 268 265 271 259 269 259 276 267 264 278 282 279 276 276 275 275 278 278 280 280 282 284 284 284 286
255 258 259 261 263 265 267 271 271 272 273 275 276 277 278 276 274 264 269 265 262 268 266 261 264 263 272 278 276 275 276 278 280 280 283 279 278 281 285 283 283 285 286
260 259 262 267 269 269 271 272 273 272 275 276 275 278 267 278 262 263 269 276 280 266 271 268 266 273 273 273 274 272 276 281 279 283 284 287 286 288 285 282 283 286 288
263 269 271 273 275 278 276 277 277 274 272 281 274 275 277 282 275 279 282 276 271 267 267 265 267 267 266 270 275 277 279 279 284 286 287 290 289 287 282 282 287 290 289
269 273 277 279 279 281 280 284 285 281 277 276 276 273 280 270 280 277 281 277 273 268 266 266 267 269 273 276 282 285 290 289 291 291 289 288 287 280 280 285 290 288 287
279 280 279 276 274 277 278 282 284 280 285 278 284 280 272 278 284 287 282 273 265 265 268 273 279 283 287 289 289 291 290 291 290 290 288 285 281 282 282 287 291 287 284
Height
3130 3139 3147 3153 3158 3162 3165 3167 3168 3169 3172 3172 3174 3172 3174 3176 3176 3176 3176 3176 3177 3177 3178 3178 3177 3177 3176 3175 3174 3172 3170 3168 3168 3169 3169 3168 3166 3165 3164 3162 3162 3161 3160
3129 3137 3145 3151 3157 3160 3163 3167 3168 3169 3171 3172 3171 3172 3173 3174 3174 3173 3174 3175 3175 3175 3175 3175 3174 3173 3173 3173 3171 3170 3169 3167 3166 3166 3166 3165 3163 3162 3160 3159 3158 3157 3156
3127 3136 3143 3149 3155 3159 3161 3164 3165 3167 3170 3170 3169 3170 3171 3172 3171 3173 3174 3173 3173 3173 3173 3172 3172 3172 3171 3170 3169 3167 3166 3165 3164 3163 3163 3162 3161 3160 3157 3155 3154 3152 3150
3126 3135 3141 3147 3151 3155 3158 3162 3163 3165 3167 3167 3167 3168 3169 3170 3169 3169 3171 3171 3170 3169 3169 3168 3168 3169 3168 3166 3165 3164 3162 3161 3160 3159 3159 3158 3157 3155 3153 3152 3150 3148 3147
3126 3133 3139 3144 3148 3151 3155 3159 3160 3162 3164 3164 3165 3166 3166 3167 3168 3168 3168 3168 3168 3167 3167 3166 3165 3164 3163 3162 3160 3159 3158 3157 3156 3155 3154 3152 3150 3149 3147 3145 3145 3143 3141
3125 3131 3137 3141 3145 3148 3151 3155 3157 3159 3160 3162 3163 3163 3164 3165 3164 3164 3166 3166 3165 3163 3163 3163 3161 3160 3159 3157 3156 3155 3154 3153 3152 3150 3148 3147 3144 3142 3141 3139 3136 3135 3133
3120 3128 3134 3139 3142 3145 3150 3152 3153 3155 3157 3159 3159 3160 3160 3161 3161 3161 3161 3162 3161 3161 3160 3158 3157 3155 3154 3153 3152 3151 3148 3147 3146 3143 3143 3140 3138 3136 3135 3133 3131 3128 3126
3114 3121 3128 3134 3137 3140 3144 3146 3150 3152 3153 3155 3156 3155 3156 3157 3157 3157 3157 3157 3156 3156 3155 3155 3154 3152 3150 3148 3147 3145 3143 3141 3139 3137 3135 3135 3134 3131 3128 3126 3124 3122 3120
3111 3118 3121 3127 3130 3135 3139 3143 3146 3148 3149 3151 3152 3152 3151 3151 3152 3152 3152 3151 3151 3150 3149 3148 3147 3146 3144 3142 3140 3138 3137 3135 3133 3131 3128 3124 3123 3122 3121 3120 3117 3114 3112
3109 3113 3117 3121 3126 3130 3136 3139 3142 3144 3145 3145 3146 3147 3147 3147 3147 3147 3147 3146 3145 3143 3143 3140 3140 3138 3136 3135 3133 3132 3131 3129 3127 3126 3124 3121 3117 3114 3110 3110 3108 3107 3104
3105 3109 3111 3116 3122 3127 3131 3135 3137 3139 3141 3140 3141 3140 3141 3140 3141 3140 3139 3139 3137 3136 3135 3133 3131 3130 3128 3127 3125 3124 3122 3121 3120 3119 3117 3115 3112 3109 3107 3103 3101 3098 3095
3100 3104 3109 3114 3118 3122 3125 3130 3133 3134 3134 3134 3134 3134 3134 3133 3132 3127 3128 3129 3128 3127 3125 3124 3121 3119 3118 3118 3116 3114 3113 3112 3110 3109 3107 3105 3102 3100 3098 3096 3093 3089 3085
3097 3100 3105 3107 3111 3117 3121 3124 3126 3127 3127 3126 3126 3126 3124 3122 3121 3123 3121 3118 3118 3117 3114 3113 3113 3110 3108 3108 3106 3104 3103 3101 3100 3098 3095 3093 3091 3089 3087 3085 3083 3081 3078
3095 3098 3101 3104 3109 3113 3116 3117 3119 3120 3121 3121 3120 3117 3114 3115 3115 3115 3113 3110 3108 3107 3104 3103 3103 3101 3099 3097 3095 3092 3091 3090 3089 3086 3084 3083 3081 3079 3076 3074 3072 3070 3068
3093 3096 3100 3103 3105 3107 3110 3111 3111 3111 3112 3112 3111 3108 3105 3106 3105 3105 3104 3102 3099 3095 3094 3094 3092 3090 3088 3086 3084 3082 3081 3079 3076 3075 3073 3071 3069 3068 3065 3063 3060 3058 3056
3091 3093 3094 3096 3100 3102 3103 3104 3103 3103 3101 3100 3099 3097 3095 3096 3095 3094 3094 3090 3085 3086 3083 3084 3083 3080 3078 3076 3074 3072 3070 3067 3066 3063 3061 3059 3058 3056 3054 3051 3050 3047 3044
3088 3090 3091 3093 3095 3096 3096 3096 3094 3092 3089 3087 3086 3083 3083 3082 3080 3081 3079 3078 3077 3076 3073 3071 3071 3070 3068 3066 3064 3062 3060 3057 3055 3052 3049 3048 3046 3044 3042 3039 3037 3035 3032
3085 3087 3088 3089 3089 3090 3089 3086 3082 3080 3074 3073 3069 3068 3067 3064 3066 3069 3068 3067 3067 3065 3061 3060 3060 3058 3056 3054 3052 3051 3049 3046 3043 3041 3037 3036 3034 3032 3030 3028 3025 3022 3020
3080 3081 3081 3080 3080 3080 3077 3070 3073 3071 3067 3062 3058 3056 3059 3060 3056 3057 3055 3058 3056 3053 3050 3047 3047 3044 3043 3041 3038 3037 3035 3033 3030 3028 3026 3024 3022 3019 3017 3015 3012 3009 3007
3070 3070 3070 3070 3070 3069 3067 3067 3064 3062 3057 3053 3052 3051 3052 3050 3050 3044 3044 3046 3043 3039 3037 3035 3033 3032 3029 3026 3024 3022 3021 3018 3015 3014 3012 3009 3007 3005 3002 3000 2996 2994 2992
3061 3061 3061 3061 3061 3061 3059 3056 3054 3051 3049 3046 3044 3043 3042 3041 3039 3037 3037 3033 3029 3025 3023 3019 3019 3017 3015 3013 3011 3008 3006 3003 3000 2999 2997 2995 2994 2990 2988 2984 2981 2979 2977
3053 3052 3052 3052 3051 3050 3049 3047 3045 3042 3040 3037 3034 3033 3031 3029 3027 3023 3022 3018 3016 3011 3010 3009 3006 3003 3001 2998 2995 2992 2990 2987 2984 2981 2981 2980 2978 2977 2974 2969 2967 2965 2963
3045 3045 3044 3043 3041 3040 3039 3037 3035 3031 3030 3027 3024 3021 3019 3017 3008 3010 3007 3001 3002 2998 2999 2997 2993 2990 2986 2982 2979 2976 2974 2973 2970 2967 2963 2962 2963 2961 2958 2955 2954 2951 2948
3037 3036 3034 3033 3030 3028 3027 3025 3024 3021 3018 3014 3012 3009 3006 3003 3000 2998 2997 2994 2992 2988 2986 2982 2978 2973 2969 2966 2964 2962 2960 2958 2956 2954 2949 2946 2947 2945 2943 2941 2940 2936 2933
3027 3026 3024 3022 3020 3018 3017 3015 3012 3009 3006 3003 3001 2997 2995 2992 2989 2988 2987 2984 2980 2975 2970 2965 2962 2959 2956 2953 2951 2948 2946 2943 2941 2939 2935 2931 2932 2930 2929 2928 2926 2922 2919
3017 3015 3014 3012 3010 3008 3006 3004 3001 2998 2996 2993 2991 2988 2984 2981 2979 2975 2972 2968 2964 2959 2956 2954 2952 2949 2945 2940 2938 2933 2930 2927 2925 2922 2919 2919 2916 2913 2914 2913 2911 2908 2905